Weather History for VIJP - May, 2012

Change the Weather History Date:

Tuesday, May 22, 2012

  Actual Average Record
Temperature  
Mean Temperature 95 °F -  
Max Temperature 106 °F - - ()
Min Temperature 84 °F - - ()
Cooling Degree Days 30    
Growing Degree Days 45 (Base 50)    
Moisture  
Dew Point 52 °F    
Average Humidity 21    
Maximum Humidity 41    
Minimum Humidity 6    
Precipitation  
Precipitation 0.00 in - - ()
Sea Level Pressure  
Sea Level Pressure 29.65 in    
Wind  
Wind Speed 6 mph ()    
Max Wind Speed 14 mph    
Max Gust Speed 26 mph    
Visibility 2.3 miles    
Events      
T = Trace of Precipitation, MM = Missing Value Source: Averaged Metar Reports

Daily Weather History Graph

Daily Weather History Graph

Search for Another Location

Airport or City:

Trip Planner

Search our weather history database for the weather conditions in past years. The results will help you decide how hot, cold, wet, or windy it might be!

Date:

Astronomy

May. 22, 2012 Rise Set
Actual Time 5:35 AM IST 7:11 PM IST
Civil Twilight 5:10 AM IST 7:36 PM IST
Nautical Twilight 4:39 AM IST 8:07 PM IST
Astronomical Twilight 4:07 AM IST 8:39 PM IST
Moon 6:26 AM IST (5/22) 8:25 PM IST (5/22)
Length of Visible Light 14h 26m
Length of Day
13h 35m
New Moon, 1% of the Moon is Illuminated
May 22
New Moon
May 29
First Quarter
Jun 4
Full
Jun 11
Last Quarter
Jun 19
New

Hourly Weather History & Observations

Time (IST) Temp. Heat Index Dew Point Humidity Pressure Visibility Wind Dir Wind Speed Gust Speed Precip Events Conditions
12:00 AM 93.2 °F - 50.0 °F 23% 29.68 in 2.5 mi Variable 13.8 mph - N/A   Haze
2:00 AM 89.6 °F - 50.0 °F 26% 29.65 in 2.5 mi Variable 4.6 mph - N/A   Haze
2:30 AM 91 °F - 47 °F 13% 29.57 in 2 mi ESE 5.8 mph - -   Partly Cloudy
3:00 AM 87.8 °F - 50.0 °F 27% 29.65 in 2.5 mi Variable 1.2 mph - N/A   Haze
4:00 AM 86.0 °F - 51.8 °F 31% 29.65 in 2.5 mi Variable 2.3 mph - N/A   Haze
5:00 AM 86.0 °F - 51.8 °F 31% 29.65 in 2.5 mi Calm Calm - N/A   Haze
6:00 AM 86.0 °F - 51.8 °F 31% 29.68 in 2.5 mi NW 3.5 mph - N/A   Haze
8:30 AM 91 °F - 56 °F 21% 29.63 in 2 mi WNW 6.9 mph - -   Haze
9:00 AM 93.2 °F 96.2 °F 66.2 °F 41% 29.74 in 2.5 mi West 11.5 mph - N/A   Haze
10:00 AM 96.8 °F 99.0 °F 64.4 °F 34% 29.74 in 2.5 mi NW 10.4 mph - N/A   Haze
12:00 PM 100.4 °F 101.3 °F 60.8 °F 27% 29.71 in 2.5 mi WNW 10.4 mph - N/A   Haze
2:00 PM 102.2 °F 100.9 °F 55.4 °F 21% 29.68 in 2.5 mi WNW 6.9 mph - N/A   Haze
2:30 PM 106 °F - 42 °F 6% 29.55 in 2 mi West 9.2 mph - -   Haze
3:00 PM 104.0 °F - 50.0 °F 16% 29.65 in 2.5 mi West 13.8 mph - N/A   Haze
3:30 PM 105.8 °F - 50.0 °F 15% 29.65 in 2.5 mi WNW 10.4 mph 26.5 mph N/A   Haze
4:30 PM 104.0 °F - 51.8 °F 17% 29.62 in 3.1 mi Variable 6.9 mph - N/A   Haze
5:30 PM 104 °F - 52 °F 11% 29.51 in 2 mi NW 9.2 mph - -   Haze
5:30 PM 102.2 °F 100.4 °F 53.6 °F 20% 29.62 in 3.1 mi NW 9.2 mph - N/A   Haze
6:00 PM 102.2 °F - 51.8 °F 18% 29.62 in 3.1 mi NW 11.5 mph - N/A   Haze
6:30 PM 102.2 °F - 51.8 °F 18% 29.62 in 2.5 mi WNW 9.2 mph - N/A   Haze
7:00 PM 100.4 °F - 50.0 °F 18% 29.65 in 2.5 mi NW 5.8 mph - N/A   Haze
8:00 PM 98.6 °F - 51.8 °F 21% 29.65 in 2.2 mi NW 4.6 mph - N/A   Haze
8:30 PM 98 °F - 50 °F 12% 29.56 in 1 mi 2.3 mph - -   Haze
8:30 PM 96.8 °F - 51.8 °F 22% 29.68 in 2.2 mi Variable 2.3 mph - N/A   Haze
9:00 PM 96.8 °F - 50.0 °F 20% 29.68 in 2.2 mi Variable 3.5 mph - N/A   Haze
10:00 PM 95.0 °F - 50.0 °F 22% 29.68 in 2.2 mi Calm Calm - N/A   Haze
11:00 PM 93.2 °F - 48.2 °F 21% 29.68 in 2.2 mi Calm Calm - N/A   Haze
11:30 PM 92 °F - 48 °F 13% 29.58 in 1 mi Calm Calm - -   Haze
11:30 PM 91.4 °F - 48.2 °F 23% 29.68 in 2.2 mi Calm Calm - N/A   Haze